Weather Roundup
Issued by NWS Springfield, MO

Home | Current Version | Previous Version | Text Only | Print | Product List | Glossary On
Versions: 1 2 3 4 5 6 7 8 9 10 11 12 13 14 15 16 17 18 19 20 21 22 23 24 25 26 27 28 29 30 31 32 33 34 35 36 37 38 39 40 41 42 43 44 45 46 47 48 49 50
000
NZUS99 KSGF 180307
HRRSGF

HOURLY WEATHER
NATIONAL WEATHER SERVICE SPRINGFIELD MO
900 PM CST WED DEC 17 2014

......SGF CWA......

CITY           SKY/WX    TMP DP  RH WIND       PRES   REMARKS
SPRINGFIELD    LGT SNOW  33  32  96 E3        30.22F FOG
JOPLIN         LGT RAIN  33  32  96 E5        30.23R FOG     WCI  29
WEST PLAINS    RAIN      35  32  88 NW3       30.26R FOG
ROLLA          CLOUDY    33  24  69 N3        30.24S
OSAGE BEACH    CLOUDY    34  23  64 NE3       30.27S
BRANSON        LGT RAIN  32  32 100 CALM      30.24S

......SURROUNDING SGF CWA......

CITY           SKY/WX    TMP DP  RH WIND       PRES   REMARKS
CHANUTE        CLOUDY    31  29  92 NE7       30.22S WCI  24
PARSONS        LGT RAIN  33  31  92 E6        30.23S FOG     WCI  28
COFFEYVILLE    MIX PCPN  32  31  96 E8        30.22S FOG     WCI  25
EMPORIA        LGT SNOW  28  27  96 E6        30.21F FOG     WCI  22
GROVE OK       RAIN      36  36 100 CALM      30.24R
ROGERS AR      MIX PCPN  35  34  96 E8        30.21R FOG     WCI  29
SILOAM SPRINGS CLOUDY    36  28  75 CALM      30.23R
HARRISON AR    RAIN      33  32  96 SE8       30.22F FOG     WCI  26
NEAR YELLVILLE CLOUDY    36  30  80 NE3       30.26S

......KANSAS AND MISSOURI......

CITY           SKY/WX    TMP DP  RH WIND       PRES   REMARKS
KANSAS CTY INT CLOUDY    30  23  75 E8        30.25F WCI  22
DOWNTOWN KC    CLOUDY    31  22  69 E7        30.26F WCI  24
COLUMBIA       CLOUDY    32  26  78 E5        30.27F WCI  27
SEDALIA        CLOUDY    33  25  72 E5        30.26F WCI  29
ST JOSEPH      CLOUDY    30  21  69 E5        30.28R WCI  25
ST LOUIS       CLOUDY    32  24  72 NE6       30.30R WCI  26
SPIRIT OF STL  CLOUDY   N/A N/A N/A NE6       30.29R
KIRKSVILLE     CLOUDY    26  22  84 SE5       30.30R WCI  20
WICHITA        LGT SNOW  31  28  89 E9        30.17S FOG     WCI  23
TOPEKA         CLOUDY    31  22  69 E5        30.26R WCI  26
OLATHE         CLOUDY    30  22  72 SE6       30.24S WCI  24

......TENNESSEE......

CITY           SKY/WX    TMP DP  RH WIND       PRES   REMARKS
MEMPHIS        CLOUDY    41  31  67 E10       30.23F
NASHVILLE      PTCLDY    34  28  79 CALM      30.27F

......ARKANSAS.......

CITY           SKY/WX    TMP DP  RH WIND       PRES   REMARKS
FAYETTEVILLE   LGT RAIN  36  35  96 CALM      30.21R
FT SMITH       RAIN      36  34  92 E6        30.26F FOG     WCI  31
LITTLE ROCK    LGT RAIN  40  31  70 N5        30.29R

......OKLAHOMA.......

CITY           SKY/WX    TMP DP  RH WIND       PRES   REMARKS
TULSA          CLOUDY    36  36 100 E8        30.20F WCI  30
PONCA CITY     CLOUDY    34  32  92 E7        30.19R FOG     WCI  28
MCALESTER      MOCLDY    38  36  92 E7        30.17F WCI  33
OKLAHOMA CITY  CLOUDY    38  35  89 SE7       30.14R FOG     WCI  33

......IOWA............

CITY           SKY/WX    TMP DP  RH WIND       PRES   REMARKS
DES MOINES     FAIR      24  16  71 NE3       30.30R
QUAD CITIES    CLEAR     19  14  81 CALM      30.30S

......ILLINOIS........

CITY           SKY/WX    TMP DP  RH WIND       PRES   REMARKS
QUINCY         CLOUDY    23  19  85 CALM      30.30R
CHICAGO        MOCLDY    25  15  66 N10       30.25F WCI  15




USA.gov is the U.S. government's official web portal to all federal, state and local government web resources and services.